DateTimeUTC,F1_A11,F1_S11,BsB_S11,BsG_S11,BsR_S11,BbsB_S11,BbsG_S11,BbsR_S11,BaB_A11,BaG_A11,BaR_A11,Tu_S11,T_S11,Uu_S11,U_S11,P_S11,T1_A11
2021-05-25T12:00:00Z,00000200,20000000,,,,,,,-000.04,0000.04,-000.08,16.4,23.3,02.0,01.3,0669.5,30.8
2021-05-25T12:01:00Z,00000200,20000000,,,,,,,0000.15,-000.06,0000.09,16.4,23.3,02.0,01.3,0669.5,30.8
2021-05-25T12:02:00Z,00000200,20000000,,,,,,,0000.04,-000.08,0000.30,16.4,23.3,02.0,01.3,0669.5,30.8
2021-05-25T12:03:00Z,00000200,60000000,,,,,,,0000.88,0000.84,0000.45,16.4,23.3,02.0,01.3,0669.5,30.8
2021-05-25T12:04:00Z,00000200,40000000,0001.71,0001.54,0000.94,0000.91,0000.66,0000.14,0000.93,0000.82,0000.85,16.5,23.1,02.3,01.5,0670.2,30.8
2021-05-25T12:05:00Z,00000200,00000000,0001.56,0001.07,0001.03,0000.70,0000.35,0000.15,-000.02,0000.45,-000.05,16.6,23.1,02.3,01.6,0670.3,30.8
2021-05-25T12:06:00Z,00000200,00000000,0001.67,0001.04,0000.97,0000.48,0000.33,0000.46,0000.61,0000.27,0000.46,16.7,23.1,02.5,01.7,0670.3,30.8
2021-05-25T12:07:00Z,00000200,00000000,0001.98,0001.14,0001.05,0000.61,0000.23,0000.20,0000.58,0000.45,0000.35,16.7,23.2,02.5,01.7,0670.3,30.8
2021-05-25T12:08:00Z,00000200,00000000,0001.82,0001.03,0000.55,0000.57,0000.36,0000.17,0000.48,0000.82,0000.58,16.8,23.2,02.5,01.7,0670.3,30.8
2021-05-25T12:09:00Z,00000200,00000000,0002.10,0001.00,0000.86,0000.94,0000.36,0000.38,0000.73,0000.22,0000.45,16.8,23.2,02.5,01.7,0670.3,30.8
2021-05-25T12:10:00Z,00000200,00000000,0001.94,0001.37,0000.87,0000.33,0000.34,0000.33,0000.39,0000.71,0000.15,16.7,23.2,02.5,01.7,0670.4,30.8
2021-05-25T12:11:00Z,00000200,00000000,0002.20,0001.38,0001.07,0000.60,0000.22,0000.25,0000.83,0000.93,0000.72,16.7,23.2,02.4,01.6,0670.4,30.8
2021-05-25T12:12:00Z,00000200,00000000,0002.21,0001.20,0000.66,0000.37,0000.42,0000.15,0000.22,0000.31,0000.04,16.7,23.2,02.4,01.6,0670.3,30.8
2021-05-25T12:13:00Z,00000200,00000000,0001.96,0001.17,0001.06,-000.16,0000.23,0000.15,0000.97,0000.35,0000.75,16.7,23.1,02.4,01.6,0670.3,30.8
2021-05-25T12:14:00Z,00000200,00000000,0001.54,0001.20,0000.61,0000.50,0000.51,0000.21,0000.63,0000.63,0000.47,16.7,23.1,02.4,01.6,0670.4,30.8
2021-05-25T12:15:00Z,00000200,00000000,0001.87,0001.49,0001.15,0000.82,0000.39,0000.14,0000.46,0000.58,0000.40,16.7,23.1,02.4,01.6,0670.3,30.8
2021-05-25T12:16:00Z,00000200,00000000,0001.08,0001.44,0000.79,0000.68,0000.28,0000.20,0000.85,0000.51,0000.77,16.7,23.1,02.5,01.7,0670.3,30.8
2021-05-25T12:17:00Z,00000200,00000000,0001.89,0001.40,0000.75,0000.57,0000.35,0000.13,0000.45,0000.58,0000.09,16.7,23.1,02.5,01.7,0670.3,30.8
2021-05-25T12:18:00Z,00000200,00000000,0002.61,0001.36,0000.59,0000.55,0000.36,0000.40,0000.94,0000.78,0000.40,16.7,23.1,02.5,01.7,0670.4,30.8
2021-05-25T12:19:00Z,00000200,00000000,0001.57,0001.43,0001.33,0000.28,0000.06,0000.46,0000.14,0000.47,0000.67,16.7,23.1,02.6,01.7,0670.3,30.8
2021-05-25T12:20:00Z,00000200,00000000,0002.18,0001.25,0000.85,0000.67,0000.29,0000.28,0000.94,0000.65,0000.32,16.8,23.2,02.5,01.7,0670.3,30.9
2021-05-25T12:21:00Z,00000200,00000000,0001.46,0001.41,0001.10,0001.13,0000.30,0000.31,0000.35,0000.58,0000.32,16.9,23.2,02.5,01.7,0670.2,30.9
2021-05-25T12:22:00Z,00000200,00000000,0002.09,0001.24,0000.90,0000.23,0000.41,0000.27,0000.77,0000.77,0000.44,17.0,23.3,02.3,01.6,0670.3,30.9
2021-05-25T12:23:00Z,00000200,00000000,0002.16,0001.15,0000.88,0000.57,0000.43,0000.25,0000.42,0000.14,0000.35,17.0,23.3,02.4,01.6,0670.3,30.9
2021-05-25T12:24:00Z,00000200,00000000,0002.14,0001.40,0000.84,0000.38,0000.47,0000.27,0000.37,0000.70,0000.74,17.1,23.3,02.4,01.7,0670.4,30.9
2021-05-25T12:25:00Z,00000200,00000000,0002.07,0001.63,0000.68,0001.11,0000.31,0000.36,0000.98,0000.28,0000.27,17.1,23.3,02.4,01.7,0670.4,30.9
2021-05-25T12:26:00Z,00000200,00000000,0001.81,0001.43,0000.76,0000.44,0000.41,0000.48,0000.16,0000.83,0000.47,17.1,23.3,02.4,01.6,0670.4,30.9
2021-05-25T12:27:00Z,00000200,00000000,0002.03,0000.94,0000.88,0000.77,0000.28,0000.21,0000.74,0000.20,0000.32,17.1,23.3,02.4,01.7,0670.4,30.9
2021-05-25T12:28:00Z,00000200,00000000,0001.59,0001.22,0000.72,0001.33,0000.16,0000.13,0000.85,0001.05,0000.36,17.0,23.3,02.4,01.6,0670.5,30.8
2021-05-25T12:29:00Z,00000200,00000000,0002.14,0001.58,0000.76,0000.77,0001.18,-000.20,0002.28,-005.54,-003.72,17.1,23.3,02.2,01.5,0670.5,30.8
2021-05-25T12:48:00Z,00000200,00000000,0001.88,0000.94,0001.21,0000.74,0000.18,0000.38,0000.75,0000.68,-000.34,17.8,23.8,02.4,01.7,0670.4,31.0
2021-05-25T12:49:00Z,00000200,00000000,0001.51,0001.40,0001.04,0000.57,0000.42,0000.30,0001.12,0001.13,0000.88,17.6,23.6,02.3,01.6,0670.6,30.9
2021-05-25T12:50:00Z,00000200,00000000,0002.23,0001.24,0001.07,0000.89,0000.29,0000.06,0000.46,0000.86,0000.51,17.5,23.5,02.3,01.6,0670.6,30.8
2021-05-25T12:51:00Z,00000200,00000000,0002.28,0001.22,0000.86,0000.39,0000.43,0000.31,0001.26,0000.33,0000.45,17.4,23.5,02.4,01.6,0670.7,30.8
2021-05-25T12:52:00Z,00000200,00000000,0001.76,0001.26,0000.67,0000.15,0000.28,0000.08,0000.46,0000.77,0000.69,17.4,23.5,02.5,01.7,0670.7,30.8
2021-05-25T12:53:00Z,00000200,00000000,0002.27,0001.46,0000.93,0000.41,0000.43,0000.39,0000.17,0000.16,0000.02,17.3,23.5,02.5,01.7,0670.5,30.8
2021-05-25T12:54:00Z,00000200,00000000,0001.39,0001.31,0000.85,0000.38,0000.40,0000.49,0000.65,0000.53,0000.19,17.3,23.4,02.5,01.7,0670.6,30.8
2021-05-25T12:55:00Z,00000200,00000000,0001.80,0001.13,0000.88,0000.85,0000.27,0000.33,0000.46,0000.77,0000.56,17.3,23.4,02.6,01.8,0670.6,30.8
2021-05-25T12:56:00Z,00000200,00000000,0002.40,0001.42,0000.85,0000.69,0000.27,0000.26,0000.49,0000.37,0000.23,17.2,23.4,02.7,01.8,0670.6,30.8
2021-05-25T12:57:00Z,00000200,40000000,,,,,,,-000.16,-000.33,0000.12,17.3,23.5,02.8,01.9,0670.5,30.8
2021-05-25T12:58:00Z,00000200,60000000,,,,,,,0000.29,0000.23,-000.21,17.0,23.5,02.3,01.5,0669.6,30.8
2021-05-25T12:59:00Z,00000200,20000000,,,,,,,-000.02,-000.08,0000.29,17.0,23.6,02.3,01.5,0669.6,30.8
